Index of /20260414/WXO-DD/model_rdps/10km/18/077
Name Last modified Size Description
Parent Directory -
20260414T18Z_MSC_RDPS_AbsoluteVorticity_IsbL-0250_RLatLon0.09_PT077H.grib2 2026-04-14 21:02 614K
20260414T18Z_MSC_RDPS_AbsoluteVorticity_IsbL-0500_RLatLon0.09_PT077H.grib2 2026-04-14 21:02 552K
20260414T18Z_MSC_RDPS_AbsoluteVorticity_IsbL-0700_RLatLon0.09_PT077H.grib2 2026-04-14 21:02 608K
20260414T18Z_MSC_RDPS_AbsoluteVorticity_IsbL-0850_RLatLon0.09_PT077H.grib2 2026-04-14 21:02 773K
20260414T18Z_MSC_RDPS_AirTemp_AGL-120m_RLatLon0.09_PT077H.grib2 2026-04-14 21:01 393K
20260414T18Z_MSC_RDPS_AirTemp_AGL-2m_RLatLon0.09_PT077H.grib2 2026-04-14 21:02 627K
20260414T18Z_MSC_RDPS_AirTemp_AGL-40m_RLatLon0.09_PT077H.grib2 2026-04-14 21:02 402K
20260414T18Z_MSC_RDPS_AirTemp_AGL-80m_RLatLon0.09_PT077H.grib2 2026-04-14 21:02 397K
20260414T18Z_MSC_RDPS_AirTemp_IsbL-0001_RLatLon0.09_PT077H.grib2 2026-04-14 21:02 310K
20260414T18Z_MSC_RDPS_AirTemp_IsbL-0005_RLatLon0.09_PT077H.grib2 2026-04-14 21:02 333K
20260414T18Z_MSC_RDPS_AirTemp_IsbL-0010_RLatLon0.09_PT077H.grib2 2026-04-14 21:02 343K
20260414T18Z_MSC_RDPS_AirTemp_IsbL-0020_RLatLon0.09_PT077H.grib2 2026-04-14 21:02 361K
20260414T18Z_MSC_RDPS_AirTemp_IsbL-0030_RLatLon0.09_PT077H.grib2 2026-04-14 21:02 380K
20260414T18Z_MSC_RDPS_AirTemp_IsbL-0050_RLatLon0.09_PT077H.grib2 2026-04-14 21:02 324K
20260414T18Z_MSC_RDPS_AirTemp_IsbL-0100_RLatLon0.09_PT077H.grib2 2026-04-14 21:02 424K
20260414T18Z_MSC_RDPS_AirTemp_IsbL-0150_RLatLon0.09_PT077H.grib2 2026-04-14 21:01 408K
20260414T18Z_MSC_RDPS_AirTemp_IsbL-0175_RLatLon0.09_PT077H.grib2 2026-04-14 21:02 408K
20260414T18Z_MSC_RDPS_AirTemp_IsbL-0200_RLatLon0.09_PT077H.grib2 2026-04-14 21:02 414K
20260414T18Z_MSC_RDPS_AirTemp_IsbL-0225_RLatLon0.09_PT077H.grib2 2026-04-14 21:02 416K
20260414T18Z_MSC_RDPS_AirTemp_IsbL-0250_RLatLon0.09_PT077H.grib2 2026-04-14 21:02 423K
20260414T18Z_MSC_RDPS_AirTemp_IsbL-0275_RLatLon0.09_PT077H.grib2 2026-04-14 21:02 403K
20260414T18Z_MSC_RDPS_AirTemp_IsbL-0300_RLatLon0.09_PT077H.grib2 2026-04-14 21:01 407K
20260414T18Z_MSC_RDPS_AirTemp_IsbL-0350_RLatLon0.09_PT077H.grib2 2026-04-14 21:01 418K
20260414T18Z_MSC_RDPS_AirTemp_IsbL-0400_RLatLon0.09_PT077H.grib2 2026-04-14 21:02 383K
20260414T18Z_MSC_RDPS_AirTemp_IsbL-0450_RLatLon0.09_PT077H.grib2 2026-04-14 21:02 390K
20260414T18Z_MSC_RDPS_AirTemp_IsbL-0500_RLatLon0.09_PT077H.grib2 2026-04-14 21:01 400K
20260414T18Z_MSC_RDPS_AirTemp_IsbL-0550_RLatLon0.09_PT077H.grib2 2026-04-14 21:01 420K
20260414T18Z_MSC_RDPS_AirTemp_IsbL-0600_RLatLon0.09_PT077H.grib2 2026-04-14 21:02 437K
20260414T18Z_MSC_RDPS_AirTemp_IsbL-0650_RLatLon0.09_PT077H.grib2 2026-04-14 21:01 451K
20260414T18Z_MSC_RDPS_AirTemp_IsbL-0700_RLatLon0.09_PT077H.grib2 2026-04-14 21:02 372K
20260414T18Z_MSC_RDPS_AirTemp_IsbL-0750_RLatLon0.09_PT077H.grib2 2026-04-14 21:02 405K
20260414T18Z_MSC_RDPS_AirTemp_IsbL-0800_RLatLon0.09_PT077H.grib2 2026-04-14 21:02 448K
20260414T18Z_MSC_RDPS_AirTemp_IsbL-0850_RLatLon0.09_PT077H.grib2 2026-04-14 21:02 495K
20260414T18Z_MSC_RDPS_AirTemp_IsbL-0875_RLatLon0.09_PT077H.grib2 2026-04-14 21:02 526K
20260414T18Z_MSC_RDPS_AirTemp_IsbL-0900_RLatLon0.09_PT077H.grib2 2026-04-14 21:02 537K
20260414T18Z_MSC_RDPS_AirTemp_IsbL-0925_RLatLon0.09_PT077H.grib2 2026-04-14 21:02 535K
20260414T18Z_MSC_RDPS_AirTemp_IsbL-0950_RLatLon0.09_PT077H.grib2 2026-04-14 21:02 532K
20260414T18Z_MSC_RDPS_AirTemp_IsbL-0970_RLatLon0.09_PT077H.grib2 2026-04-14 21:02 526K
20260414T18Z_MSC_RDPS_AirTemp_IsbL-0985_RLatLon0.09_PT077H.grib2 2026-04-14 21:02 519K
20260414T18Z_MSC_RDPS_AirTemp_IsbL-1000_RLatLon0.09_PT077H.grib2 2026-04-14 21:02 507K
20260414T18Z_MSC_RDPS_AirTemp_IsbL-1015_RLatLon0.09_PT077H.grib2 2026-04-14 21:02 503K
20260414T18Z_MSC_RDPS_Albedo_Sfc_RLatLon0.09_PT077H.grib2 2026-04-14 21:02 162K
20260414T18Z_MSC_RDPS_CAPE_Sfc_RLatLon0.09_PT077H.grib2 2026-04-14 21:02 1.8M
20260414T18Z_MSC_RDPS_CIN_Sfc_RLatLon0.09_PT077H.grib2 2026-04-14 21:02 1.2M
20260414T18Z_MSC_RDPS_CloudWater_EAtm_RLatLon0.09_PT077H.grib2 2026-04-14 21:01 213K
20260414T18Z_MSC_RDPS_ConvectivePrecip-Accum_Sfc_RLatLon0.09_PT077H.grib2 2026-04-14 21:02 1.2M
20260414T18Z_MSC_RDPS_DewPointDepression_AGL-2m_RLatLon0.09_PT077H.grib2 2026-04-14 21:02 406K
20260414T18Z_MSC_RDPS_DewPointDepression_IsbL-0001_RLatLon0.09_PT077H.grib2 2026-04-14 21:02 193
20260414T18Z_MSC_RDPS_DewPointDepression_IsbL-0005_RLatLon0.09_PT077H.grib2 2026-04-14 21:02 193
20260414T18Z_MSC_RDPS_DewPointDepression_IsbL-0010_RLatLon0.09_PT077H.grib2 2026-04-14 21:02 193
20260414T18Z_MSC_RDPS_DewPointDepression_IsbL-0020_RLatLon0.09_PT077H.grib2 2026-04-14 21:02 193
20260414T18Z_MSC_RDPS_DewPointDepression_IsbL-0030_RLatLon0.09_PT077H.grib2 2026-04-14 21:02 1.7K
20260414T18Z_MSC_RDPS_DewPointDepression_IsbL-0050_RLatLon0.09_PT077H.grib2 2026-04-14 21:02 115K
20260414T18Z_MSC_RDPS_DewPointDepression_IsbL-0100_RLatLon0.09_PT077H.grib2 2026-04-14 21:01 125K
20260414T18Z_MSC_RDPS_DewPointDepression_IsbL-0150_RLatLon0.09_PT077H.grib2 2026-04-14 21:02 147K
20260414T18Z_MSC_RDPS_DewPointDepression_IsbL-0175_RLatLon0.09_PT077H.grib2 2026-04-14 21:02 179K
20260414T18Z_MSC_RDPS_DewPointDepression_IsbL-0200_RLatLon0.09_PT077H.grib2 2026-04-14 21:02 207K
20260414T18Z_MSC_RDPS_DewPointDepression_IsbL-0225_RLatLon0.09_PT077H.grib2 2026-04-14 21:02 248K
20260414T18Z_MSC_RDPS_DewPointDepression_IsbL-0250_RLatLon0.09_PT077H.grib2 2026-04-14 21:02 292K
20260414T18Z_MSC_RDPS_DewPointDepression_IsbL-0275_RLatLon0.09_PT077H.grib2 2026-04-14 21:02 301K
20260414T18Z_MSC_RDPS_DewPointDepression_IsbL-0300_RLatLon0.09_PT077H.grib2 2026-04-14 21:02 315K
20260414T18Z_MSC_RDPS_DewPointDepression_IsbL-0350_RLatLon0.09_PT077H.grib2 2026-04-14 21:02 319K
20260414T18Z_MSC_RDPS_DewPointDepression_IsbL-0400_RLatLon0.09_PT077H.grib2 2026-04-14 21:02 330K
20260414T18Z_MSC_RDPS_DewPointDepression_IsbL-0450_RLatLon0.09_PT077H.grib2 2026-04-14 21:02 336K
20260414T18Z_MSC_RDPS_DewPointDepression_IsbL-0500_RLatLon0.09_PT077H.grib2 2026-04-14 21:01 342K
20260414T18Z_MSC_RDPS_DewPointDepression_IsbL-0550_RLatLon0.09_PT077H.grib2 2026-04-14 21:02 353K
20260414T18Z_MSC_RDPS_DewPointDepression_IsbL-0600_RLatLon0.09_PT077H.grib2 2026-04-14 21:02 367K
20260414T18Z_MSC_RDPS_DewPointDepression_IsbL-0650_RLatLon0.09_PT077H.grib2 2026-04-14 21:01 378K
20260414T18Z_MSC_RDPS_DewPointDepression_IsbL-0700_RLatLon0.09_PT077H.grib2 2026-04-14 21:01 396K
20260414T18Z_MSC_RDPS_DewPointDepression_IsbL-0750_RLatLon0.09_PT077H.grib2 2026-04-14 21:02 420K
20260414T18Z_MSC_RDPS_DewPointDepression_IsbL-0800_RLatLon0.09_PT077H.grib2 2026-04-14 21:02 452K
20260414T18Z_MSC_RDPS_DewPointDepression_IsbL-0850_RLatLon0.09_PT077H.grib2 2026-04-14 21:02 472K
20260414T18Z_MSC_RDPS_DewPointDepression_IsbL-0875_RLatLon0.09_PT077H.grib2 2026-04-14 21:02 471K
20260414T18Z_MSC_RDPS_DewPointDepression_IsbL-0900_RLatLon0.09_PT077H.grib2 2026-04-14 21:02 466K
20260414T18Z_MSC_RDPS_DewPointDepression_IsbL-0925_RLatLon0.09_PT077H.grib2 2026-04-14 21:02 450K
20260414T18Z_MSC_RDPS_DewPointDepression_IsbL-0950_RLatLon0.09_PT077H.grib2 2026-04-14 21:02 435K
20260414T18Z_MSC_RDPS_DewPointDepression_IsbL-0970_RLatLon0.09_PT077H.grib2 2026-04-14 21:02 429K
20260414T18Z_MSC_RDPS_DewPointDepression_IsbL-0985_RLatLon0.09_PT077H.grib2 2026-04-14 21:02 425K
20260414T18Z_MSC_RDPS_DewPointDepression_IsbL-1000_RLatLon0.09_PT077H.grib2 2026-04-14 21:02 422K
20260414T18Z_MSC_RDPS_DewPointDepression_IsbL-1015_RLatLon0.09_PT077H.grib2 2026-04-14 21:02 413K
20260414T18Z_MSC_RDPS_DewPoint_AGL-2m_RLatLon0.09_PT077H.grib2 2026-04-14 21:02 309K
20260414T18Z_MSC_RDPS_DownwardLongwaveRadiationFlux-Accum_Sfc_RLatLon0.09_PT077H.grib2 2026-04-14 21:02 431K
20260414T18Z_MSC_RDPS_DownwardShortwaveRadiationFlux-Accum_NTAtm_RLatLon0.09_PT077H.grib2 2026-04-14 21:02 133K
20260414T18Z_MSC_RDPS_DownwardShortwaveRadiationFlux-Accum_Sfc_RLatLon0.09_PT077H.grib2 2026-04-14 21:02 618K
20260414T18Z_MSC_RDPS_FreezingRain-Accum1h_Sfc_RLatLon0.09_PT077H.grib2 2026-04-14 21:02 24K
20260414T18Z_MSC_RDPS_FreezingRain-Accum_Sfc_RLatLon0.09_PT077H.grib2 2026-04-14 21:02 162K
20260414T18Z_MSC_RDPS_GeopotentialHeight_IsbL-0001_RLatLon0.09_PT077H.grib2 2026-04-14 21:02 269K
20260414T18Z_MSC_RDPS_GeopotentialHeight_IsbL-0005_RLatLon0.09_PT077H.grib2 2026-04-14 21:02 234K
20260414T18Z_MSC_RDPS_GeopotentialHeight_IsbL-0010_RLatLon0.09_PT077H.grib2 2026-04-14 21:02 308K
20260414T18Z_MSC_RDPS_GeopotentialHeight_IsbL-0020_RLatLon0.09_PT077H.grib2 2026-04-14 21:02 335K
20260414T18Z_MSC_RDPS_GeopotentialHeight_IsbL-0030_RLatLon0.09_PT077H.grib2 2026-04-14 21:02 337K
20260414T18Z_MSC_RDPS_GeopotentialHeight_IsbL-0050_RLatLon0.09_PT077H.grib2 2026-04-14 21:02 237K
20260414T18Z_MSC_RDPS_GeopotentialHeight_IsbL-0100_RLatLon0.09_PT077H.grib2 2026-04-14 21:01 289K
20260414T18Z_MSC_RDPS_GeopotentialHeight_IsbL-0150_RLatLon0.09_PT077H.grib2 2026-04-14 21:02 262K
20260414T18Z_MSC_RDPS_GeopotentialHeight_IsbL-0175_RLatLon0.09_PT077H.grib2 2026-04-14 21:01 264K
20260414T18Z_MSC_RDPS_GeopotentialHeight_IsbL-0200_RLatLon0.09_PT077H.grib2 2026-04-14 21:02 266K
20260414T18Z_MSC_RDPS_GeopotentialHeight_IsbL-0225_RLatLon0.09_PT077H.grib2 2026-04-14 21:02 267K
20260414T18Z_MSC_RDPS_GeopotentialHeight_IsbL-0250_RLatLon0.09_PT077H.grib2 2026-04-14 21:02 268K
20260414T18Z_MSC_RDPS_GeopotentialHeight_IsbL-0275_RLatLon0.09_PT077H.grib2 2026-04-14 21:02 267K
20260414T18Z_MSC_RDPS_GeopotentialHeight_IsbL-0300_RLatLon0.09_PT077H.grib2 2026-04-14 21:02 265K
20260414T18Z_MSC_RDPS_GeopotentialHeight_IsbL-0350_RLatLon0.09_PT077H.grib2 2026-04-14 21:02 229K
20260414T18Z_MSC_RDPS_GeopotentialHeight_IsbL-0400_RLatLon0.09_PT077H.grib2 2026-04-14 21:02 226K
20260414T18Z_MSC_RDPS_GeopotentialHeight_IsbL-0450_RLatLon0.09_PT077H.grib2 2026-04-14 21:01 221K
20260414T18Z_MSC_RDPS_GeopotentialHeight_IsbL-0500_RLatLon0.09_PT077H.grib2 2026-04-14 21:02 286K
20260414T18Z_MSC_RDPS_GeopotentialHeight_IsbL-0550_RLatLon0.09_PT077H.grib2 2026-04-14 21:02 283K
20260414T18Z_MSC_RDPS_GeopotentialHeight_IsbL-0600_RLatLon0.09_PT077H.grib2 2026-04-14 21:02 279K
20260414T18Z_MSC_RDPS_GeopotentialHeight_IsbL-0650_RLatLon0.09_PT077H.grib2 2026-04-14 21:02 278K
20260414T18Z_MSC_RDPS_GeopotentialHeight_IsbL-0700_RLatLon0.09_PT077H.grib2 2026-04-14 21:02 249K
20260414T18Z_MSC_RDPS_GeopotentialHeight_IsbL-0750_RLatLon0.09_PT077H.grib2 2026-04-14 21:02 251K
20260414T18Z_MSC_RDPS_GeopotentialHeight_IsbL-0800_RLatLon0.09_PT077H.grib2 2026-04-14 21:02 339K
20260414T18Z_MSC_RDPS_GeopotentialHeight_IsbL-0850_RLatLon0.09_PT077H.grib2 2026-04-14 21:02 349K
20260414T18Z_MSC_RDPS_GeopotentialHeight_IsbL-0875_RLatLon0.09_PT077H.grib2 2026-04-14 21:02 353K
20260414T18Z_MSC_RDPS_GeopotentialHeight_IsbL-0900_RLatLon0.09_PT077H.grib2 2026-04-14 21:02 359K
20260414T18Z_MSC_RDPS_GeopotentialHeight_IsbL-0925_RLatLon0.09_PT077H.grib2 2026-04-14 21:02 363K
20260414T18Z_MSC_RDPS_GeopotentialHeight_IsbL-0950_RLatLon0.09_PT077H.grib2 2026-04-14 21:02 365K
20260414T18Z_MSC_RDPS_GeopotentialHeight_IsbL-0970_RLatLon0.09_PT077H.grib2 2026-04-14 21:02 369K
20260414T18Z_MSC_RDPS_GeopotentialHeight_IsbL-0985_RLatLon0.09_PT077H.grib2 2026-04-14 21:02 377K
20260414T18Z_MSC_RDPS_GeopotentialHeight_IsbL-1000_RLatLon0.09_PT077H.grib2 2026-04-14 21:02 389K
20260414T18Z_MSC_RDPS_GeopotentialHeight_IsbL-1015_RLatLon0.09_PT077H.grib2 2026-04-14 21:02 404K
20260414T18Z_MSC_RDPS_Humidex_Sfc_RLatLon0.09_PT077H.grib2 2026-04-14 21:02 2.4M
20260414T18Z_MSC_RDPS_IcePellets-Accum1h_Sfc_RLatLon0.09_PT077H.grib2 2026-04-14 21:02 6.5K
20260414T18Z_MSC_RDPS_IcePellets-Accum_Sfc_RLatLon0.09_PT077H.grib2 2026-04-14 21:02 40K
20260414T18Z_MSC_RDPS_KIndex_Sfc_RLatLon0.09_PT077H.grib2 2026-04-14 21:02 2.4M
20260414T18Z_MSC_RDPS_LatentHeatNetFlux_Sfc_RLatLon0.09_PT077H.grib2 2026-04-14 21:02 265K
20260414T18Z_MSC_RDPS_LiftedIndex-MU-VT_IsbL-0500_RLatLon0.09_PT077H.grib2 2026-04-14 21:02 2.4M
20260414T18Z_MSC_RDPS_NetLongwaveRadiationFlux-Accum_Sfc_RLatLon0.09_PT077H.grib2 2026-04-14 21:02 477K
20260414T18Z_MSC_RDPS_NetShortwaveRadiationFlux-Accum_Sfc_RLatLon0.09_PT077H.grib2 2026-04-14 21:02 627K
20260414T18Z_MSC_RDPS_PlanetaryBoundaryLayerHeight_Sfc_RLatLon0.09_PT077H.grib2 2026-04-14 21:02 1.0M
20260414T18Z_MSC_RDPS_Precip-Accum1h_Sfc_RLatLon0.09_PT077H.grib2 2026-04-14 21:02 1.2M
20260414T18Z_MSC_RDPS_Precip-Accum_Sfc_RLatLon0.09_PT077H.grib2 2026-04-14 21:02 2.2M
20260414T18Z_MSC_RDPS_PrecipRate_Sfc_RLatLon0.09_PT077H.grib2 2026-04-14 21:01 174K
20260414T18Z_MSC_RDPS_PrecipType-Instant_Sfc_RLatLon0.09_PT077H.grib2 2026-04-14 21:02 540K
20260414T18Z_MSC_RDPS_Pressure-Trend3h_Sfc_RLatLon0.09_PT077H.grib2 2026-04-14 21:02 1.2M
20260414T18Z_MSC_RDPS_Pressure_MSL_RLatLon0.09_PT077H.grib2 2026-04-14 21:02 294K
20260414T18Z_MSC_RDPS_Pressure_PVU-1.5_RLatLon0.09_PT077H.grib2 2026-04-14 21:02 2.3M
20260414T18Z_MSC_RDPS_Pressure_PVU-1_RLatLon0.09_PT077H.grib2 2026-04-14 21:02 2.4M
20260414T18Z_MSC_RDPS_Pressure_PVU-2_RLatLon0.09_PT077H.grib2 2026-04-14 21:01 2.4M
20260414T18Z_MSC_RDPS_Pressure_Sfc_RLatLon0.09_PT077H.grib2 2026-04-14 21:02 499K
20260414T18Z_MSC_RDPS_RadiativeTemp_Sfc_RLatLon0.09_PT077H.grib2 2026-04-14 21:02 318K
20260414T18Z_MSC_RDPS_Rain-Accum1h_Sfc_RLatLon0.09_PT077H.grib2 2026-04-14 21:02 548K
20260414T18Z_MSC_RDPS_Rain-Accum_Sfc_RLatLon0.09_PT077H.grib2 2026-04-14 21:01 1.7M
20260414T18Z_MSC_RDPS_RelativeHumidity_AGL-2m_RLatLon0.09_PT077H.grib2 2026-04-14 21:02 1.0M
20260414T18Z_MSC_RDPS_RelativeHumidity_IsbL-0010_RLatLon0.09_PT077H.grib2 2026-04-14 21:02 427K
20260414T18Z_MSC_RDPS_RelativeHumidity_IsbL-0020_RLatLon0.09_PT077H.grib2 2026-04-14 21:02 399K
20260414T18Z_MSC_RDPS_RelativeHumidity_IsbL-0030_RLatLon0.09_PT077H.grib2 2026-04-14 21:01 469K
20260414T18Z_MSC_RDPS_RelativeHumidity_IsbL-0050_RLatLon0.09_PT077H.grib2 2026-04-14 21:02 281K
20260414T18Z_MSC_RDPS_RelativeHumidity_IsbL-0100_RLatLon0.09_PT077H.grib2 2026-04-14 21:02 262K
20260414T18Z_MSC_RDPS_RelativeHumidity_IsbL-0150_RLatLon0.09_PT077H.grib2 2026-04-14 21:02 386K
20260414T18Z_MSC_RDPS_RelativeHumidity_IsbL-0175_RLatLon0.09_PT077H.grib2 2026-04-14 21:02 465K
20260414T18Z_MSC_RDPS_RelativeHumidity_IsbL-0200_RLatLon0.09_PT077H.grib2 2026-04-14 21:02 544K
20260414T18Z_MSC_RDPS_RelativeHumidity_IsbL-0225_RLatLon0.09_PT077H.grib2 2026-04-14 21:01 616K
20260414T18Z_MSC_RDPS_RelativeHumidity_IsbL-0250_RLatLon0.09_PT077H.grib2 2026-04-14 21:01 688K
20260414T18Z_MSC_RDPS_RelativeHumidity_IsbL-0275_RLatLon0.09_PT077H.grib2 2026-04-14 21:02 710K
20260414T18Z_MSC_RDPS_RelativeHumidity_IsbL-0300_RLatLon0.09_PT077H.grib2 2026-04-14 21:02 749K
20260414T18Z_MSC_RDPS_RelativeHumidity_IsbL-0350_RLatLon0.09_PT077H.grib2 2026-04-14 21:02 759K
20260414T18Z_MSC_RDPS_RelativeHumidity_IsbL-0400_RLatLon0.09_PT077H.grib2 2026-04-14 21:02 770K
20260414T18Z_MSC_RDPS_RelativeHumidity_IsbL-0450_RLatLon0.09_PT077H.grib2 2026-04-14 21:02 780K
20260414T18Z_MSC_RDPS_RelativeHumidity_IsbL-0500_RLatLon0.09_PT077H.grib2 2026-04-14 21:02 800K
20260414T18Z_MSC_RDPS_RelativeHumidity_IsbL-0550_RLatLon0.09_PT077H.grib2 2026-04-14 21:01 820K
20260414T18Z_MSC_RDPS_RelativeHumidity_IsbL-0600_RLatLon0.09_PT077H.grib2 2026-04-14 21:02 840K
20260414T18Z_MSC_RDPS_RelativeHumidity_IsbL-0650_RLatLon0.09_PT077H.grib2 2026-04-14 21:02 854K
20260414T18Z_MSC_RDPS_RelativeHumidity_IsbL-0700_RLatLon0.09_PT077H.grib2 2026-04-14 21:02 880K
20260414T18Z_MSC_RDPS_RelativeHumidity_IsbL-0750_RLatLon0.09_PT077H.grib2 2026-04-14 21:02 928K
20260414T18Z_MSC_RDPS_RelativeHumidity_IsbL-0800_RLatLon0.09_PT077H.grib2 2026-04-14 21:02 1.0M
20260414T18Z_MSC_RDPS_RelativeHumidity_IsbL-0850_RLatLon0.09_PT077H.grib2 2026-04-14 21:02 1.0M
20260414T18Z_MSC_RDPS_RelativeHumidity_IsbL-0875_RLatLon0.09_PT077H.grib2 2026-04-14 21:02 1.1M
20260414T18Z_MSC_RDPS_RelativeHumidity_IsbL-0900_RLatLon0.09_PT077H.grib2 2026-04-14 21:02 1.1M
20260414T18Z_MSC_RDPS_RelativeHumidity_IsbL-0925_RLatLon0.09_PT077H.grib2 2026-04-14 21:02 1.1M
20260414T18Z_MSC_RDPS_RelativeHumidity_IsbL-0950_RLatLon0.09_PT077H.grib2 2026-04-14 21:02 1.1M
20260414T18Z_MSC_RDPS_RelativeHumidity_IsbL-0970_RLatLon0.09_PT077H.grib2 2026-04-14 21:01 1.0M
20260414T18Z_MSC_RDPS_RelativeHumidity_IsbL-0985_RLatLon0.09_PT077H.grib2 2026-04-14 21:01 1.0M
20260414T18Z_MSC_RDPS_RelativeHumidity_IsbL-1000_RLatLon0.09_PT077H.grib2 2026-04-14 21:02 1.0M
20260414T18Z_MSC_RDPS_RelativeHumidity_IsbL-1015_RLatLon0.09_PT077H.grib2 2026-04-14 21:02 1.0M
20260414T18Z_MSC_RDPS_Runoff-Accum_Sfc_RLatLon0.09_PT077H.grib2 2026-04-14 21:01 49K
20260414T18Z_MSC_RDPS_SWEATIndex_Sfc_RLatLon0.09_PT077H.grib2 2026-04-14 21:01 2.4M
20260414T18Z_MSC_RDPS_SeeingIndex_EAtm_RLatLon0.09_PT077H.grib2 2026-04-14 21:01 1.0M
20260414T18Z_MSC_RDPS_SensibleHeatNetFlux_Sfc_RLatLon0.09_PT077H.grib2 2026-04-14 21:01 325K
20260414T18Z_MSC_RDPS_ShowalterIndex_IsbL-0500_RLatLon0.09_PT077H.grib2 2026-04-14 21:02 2.6M
20260414T18Z_MSC_RDPS_SkyTransparencyIndex_EAtm_RLatLon0.09_PT077H.grib2 2026-04-14 21:01 709K
20260414T18Z_MSC_RDPS_Snow-Accum1h_Sfc_RLatLon0.09_PT077H.grib2 2026-04-14 21:02 526K
20260414T18Z_MSC_RDPS_Snow-Accum_Sfc_RLatLon0.09_PT077H.grib2 2026-04-14 21:01 888K
20260414T18Z_MSC_RDPS_SnowDensity_Sfc_RLatLon0.09_PT077H.grib2 2026-04-14 21:02 180K
20260414T18Z_MSC_RDPS_SnowDepth_Sfc_RLatLon0.09_PT077H.grib2 2026-04-14 21:02 742K
20260414T18Z_MSC_RDPS_SoilTemp_DBS-0to10cm_RLatLon0.09_PT077H.grib2 2026-04-14 21:02 243K
20260414T18Z_MSC_RDPS_SoilTemp_Sfc_RLatLon0.09_PT077H.grib2 2026-04-14 21:02 284K
20260414T18Z_MSC_RDPS_SoilVolumetricIceContent_Sfc_RLatLon0.09_PT077H.grib2 2026-04-14 21:02 176K
20260414T18Z_MSC_RDPS_SoilVolumetricWaterContent_DBS-0to10cm_RLatLon0.09_PT077H.grib2 2026-04-14 21:02 245K
20260414T18Z_MSC_RDPS_SoilVolumetricWaterContent_DBS-0to1cm_RLatLon0.09_PT077H.grib2 2026-04-14 21:02 336K
20260414T18Z_MSC_RDPS_SpecificHumidity_AGL-120m_RLatLon0.09_PT077H.grib2 2026-04-14 21:02 479K
20260414T18Z_MSC_RDPS_SpecificHumidity_AGL-2m_RLatLon0.09_PT077H.grib2 2026-04-14 21:02 644K
20260414T18Z_MSC_RDPS_SpecificHumidity_AGL-40m_RLatLon0.09_PT077H.grib2 2026-04-14 21:02 484K
20260414T18Z_MSC_RDPS_SpecificHumidity_AGL-80m_RLatLon0.09_PT077H.grib2 2026-04-14 21:02 480K
20260414T18Z_MSC_RDPS_SpecificHumidity_IsbL-0001_RLatLon0.09_PT077H.grib2 2026-04-14 21:02 304K
20260414T18Z_MSC_RDPS_SpecificHumidity_IsbL-0005_RLatLon0.09_PT077H.grib2 2026-04-14 21:02 333K
20260414T18Z_MSC_RDPS_SpecificHumidity_IsbL-0010_RLatLon0.09_PT077H.grib2 2026-04-14 21:02 369K
20260414T18Z_MSC_RDPS_SpecificHumidity_IsbL-0020_RLatLon0.09_PT077H.grib2 2026-04-14 21:02 368K
20260414T18Z_MSC_RDPS_SpecificHumidity_IsbL-0030_RLatLon0.09_PT077H.grib2 2026-04-14 21:01 416K
20260414T18Z_MSC_RDPS_SpecificHumidity_IsbL-0050_RLatLon0.09_PT077H.grib2 2026-04-14 21:01 375K
20260414T18Z_MSC_RDPS_SpecificHumidity_IsbL-0100_RLatLon0.09_PT077H.grib2 2026-04-14 21:02 381K
20260414T18Z_MSC_RDPS_SpecificHumidity_IsbL-0150_RLatLon0.09_PT077H.grib2 2026-04-14 21:02 469K
20260414T18Z_MSC_RDPS_SpecificHumidity_IsbL-0175_RLatLon0.09_PT077H.grib2 2026-04-14 21:02 430K
20260414T18Z_MSC_RDPS_SpecificHumidity_IsbL-0200_RLatLon0.09_PT077H.grib2 2026-04-14 21:02 439K
20260414T18Z_MSC_RDPS_SpecificHumidity_IsbL-0225_RLatLon0.09_PT077H.grib2 2026-04-14 21:02 444K
20260414T18Z_MSC_RDPS_SpecificHumidity_IsbL-0250_RLatLon0.09_PT077H.grib2 2026-04-14 21:02 551K
20260414T18Z_MSC_RDPS_SpecificHumidity_IsbL-0275_RLatLon0.09_PT077H.grib2 2026-04-14 21:02 461K
20260414T18Z_MSC_RDPS_SpecificHumidity_IsbL-0300_RLatLon0.09_PT077H.grib2 2026-04-14 21:02 528K
20260414T18Z_MSC_RDPS_SpecificHumidity_IsbL-0350_RLatLon0.09_PT077H.grib2 2026-04-14 21:02 515K
20260414T18Z_MSC_RDPS_SpecificHumidity_IsbL-0400_RLatLon0.09_PT077H.grib2 2026-04-14 21:02 496K
20260414T18Z_MSC_RDPS_SpecificHumidity_IsbL-0450_RLatLon0.09_PT077H.grib2 2026-04-14 21:02 550K
20260414T18Z_MSC_RDPS_SpecificHumidity_IsbL-0500_RLatLon0.09_PT077H.grib2 2026-04-14 21:02 487K
20260414T18Z_MSC_RDPS_SpecificHumidity_IsbL-0550_RLatLon0.09_PT077H.grib2 2026-04-14 21:02 563K
20260414T18Z_MSC_RDPS_SpecificHumidity_IsbL-0600_RLatLon0.09_PT077H.grib2 2026-04-14 21:02 616K
20260414T18Z_MSC_RDPS_SpecificHumidity_IsbL-0650_RLatLon0.09_PT077H.grib2 2026-04-14 21:02 536K
20260414T18Z_MSC_RDPS_SpecificHumidity_IsbL-0700_RLatLon0.09_PT077H.grib2 2026-04-14 21:02 581K
20260414T18Z_MSC_RDPS_SpecificHumidity_IsbL-0750_RLatLon0.09_PT077H.grib2 2026-04-14 21:01 641K
20260414T18Z_MSC_RDPS_SpecificHumidity_IsbL-0800_RLatLon0.09_PT077H.grib2 2026-04-14 21:02 729K
20260414T18Z_MSC_RDPS_SpecificHumidity_IsbL-0850_RLatLon0.09_PT077H.grib2 2026-04-14 21:02 795K
20260414T18Z_MSC_RDPS_SpecificHumidity_IsbL-0875_RLatLon0.09_PT077H.grib2 2026-04-14 21:02 818K
20260414T18Z_MSC_RDPS_SpecificHumidity_IsbL-0900_RLatLon0.09_PT077H.grib2 2026-04-14 21:02 833K
20260414T18Z_MSC_RDPS_SpecificHumidity_IsbL-0925_RLatLon0.09_PT077H.grib2 2026-04-14 21:02 696K
20260414T18Z_MSC_RDPS_SpecificHumidity_IsbL-0950_RLatLon0.09_PT077H.grib2 2026-04-14 21:02 692K
20260414T18Z_MSC_RDPS_SpecificHumidity_IsbL-0970_RLatLon0.09_PT077H.grib2 2026-04-14 21:02 684K
20260414T18Z_MSC_RDPS_SpecificHumidity_IsbL-0985_RLatLon0.09_PT077H.grib2 2026-04-14 21:02 678K
20260414T18Z_MSC_RDPS_SpecificHumidity_IsbL-1000_RLatLon0.09_PT077H.grib2 2026-04-14 21:02 669K
20260414T18Z_MSC_RDPS_SpecificHumidity_IsbL-1015_RLatLon0.09_PT077H.grib2 2026-04-14 21:02 658K
20260414T18Z_MSC_RDPS_SpecificHumidity_Sfc_RLatLon0.09_PT077H.grib2 2026-04-14 21:02 322K
20260414T18Z_MSC_RDPS_StormRelativeHelicity_EtaL-10000_RLatLon0.09_PT077H.grib2 2026-04-14 21:02 1.1M
20260414T18Z_MSC_RDPS_StormSeverityIndex_EtaL-10000_RLatLon0.09_PT077H.grib2 2026-04-14 21:01 1.2M
20260414T18Z_MSC_RDPS_Thickness_IsbL-0850to0700_RLatLon0.09_PT077H.grib2 2026-04-14 21:02 174K
20260414T18Z_MSC_RDPS_Thickness_IsbL-1000to0500_RLatLon0.09_PT077H.grib2 2026-04-14 21:02 199K
20260414T18Z_MSC_RDPS_Thickness_IsbL-1000to0850_RLatLon0.09_PT077H.grib2 2026-04-14 21:02 184K
20260414T18Z_MSC_RDPS_TotalCloudCover_Sfc_RLatLon0.09_PT077H.grib2 2026-04-14 21:02 657K
20260414T18Z_MSC_RDPS_TotalTotalsIndex_Sfc_RLatLon0.09_PT077H.grib2 2026-04-14 21:02 2.4M
20260414T18Z_MSC_RDPS_UVIndex-ClearSky_Sfc_RLatLon0.09_PT077H.grib2 2026-04-14 21:02 189K
20260414T18Z_MSC_RDPS_UVIndex_Sfc_RLatLon0.09_PT077H.grib2 2026-04-14 21:02 409K
20260414T18Z_MSC_RDPS_UpwardLongwaveRadiationFlux_NTAtm_RLatLon0.09_PT077H.grib2 2026-04-14 21:02 489K
20260414T18Z_MSC_RDPS_UpwardShortwaveRadiationFlux_NTAtm_RLatLon0.09_PT077H.grib2 2026-04-14 21:01 371K
20260414T18Z_MSC_RDPS_VerticalVelocity_IsbL-0250_RLatLon0.09_PT077H.grib2 2026-04-14 21:02 546K
20260414T18Z_MSC_RDPS_VerticalVelocity_IsbL-0500_RLatLon0.09_PT077H.grib2 2026-04-14 21:02 533K
20260414T18Z_MSC_RDPS_VerticalVelocity_IsbL-0700_RLatLon0.09_PT077H.grib2 2026-04-14 21:02 581K
20260414T18Z_MSC_RDPS_VerticalVelocity_IsbL-0850_RLatLon0.09_PT077H.grib2 2026-04-14 21:01 682K
20260414T18Z_MSC_RDPS_VerticalWindShear_EtaL-6500_RLatLon0.09_PT077H.grib2 2026-04-14 21:01 1.2M
20260414T18Z_MSC_RDPS_WindChill_Sfc_RLatLon0.09_PT077H.grib2 2026-04-14 21:02 1.1M
20260414T18Z_MSC_RDPS_WindDir_AGL-10m_RLatLon0.09_PT077H.grib2 2026-04-14 21:02 953K
20260414T18Z_MSC_RDPS_WindDir_AGL-120m_RLatLon0.09_PT077H.grib2 2026-04-14 21:01 596K
20260414T18Z_MSC_RDPS_WindDir_AGL-40m_RLatLon0.09_PT077H.grib2 2026-04-14 21:02 620K
20260414T18Z_MSC_RDPS_WindDir_AGL-80m_RLatLon0.09_PT077H.grib2 2026-04-14 21:01 605K
20260414T18Z_MSC_RDPS_WindDir_IsbL-0001_RLatLon0.09_PT077H.grib2 2026-04-14 21:02 252K
20260414T18Z_MSC_RDPS_WindDir_IsbL-0005_RLatLon0.09_PT077H.grib2 2026-04-14 21:02 343K
20260414T18Z_MSC_RDPS_WindDir_IsbL-0010_RLatLon0.09_PT077H.grib2 2026-04-14 21:02 369K
20260414T18Z_MSC_RDPS_WindDir_IsbL-0020_RLatLon0.09_PT077H.grib2 2026-04-14 21:02 380K
20260414T18Z_MSC_RDPS_WindDir_IsbL-0030_RLatLon0.09_PT077H.grib2 2026-04-14 21:02 379K
20260414T18Z_MSC_RDPS_WindDir_IsbL-0050_RLatLon0.09_PT077H.grib2 2026-04-14 21:02 395K
20260414T18Z_MSC_RDPS_WindDir_IsbL-0100_RLatLon0.09_PT077H.grib2 2026-04-14 21:02 383K
20260414T18Z_MSC_RDPS_WindDir_IsbL-0150_RLatLon0.09_PT077H.grib2 2026-04-14 21:02 377K
20260414T18Z_MSC_RDPS_WindDir_IsbL-0175_RLatLon0.09_PT077H.grib2 2026-04-14 21:02 400K
20260414T18Z_MSC_RDPS_WindDir_IsbL-0200_RLatLon0.09_PT077H.grib2 2026-04-14 21:02 418K
20260414T18Z_MSC_RDPS_WindDir_IsbL-0225_RLatLon0.09_PT077H.grib2 2026-04-14 21:02 427K
20260414T18Z_MSC_RDPS_WindDir_IsbL-0250_RLatLon0.09_PT077H.grib2 2026-04-14 21:02 429K
20260414T18Z_MSC_RDPS_WindDir_IsbL-0275_RLatLon0.09_PT077H.grib2 2026-04-14 21:01 451K
20260414T18Z_MSC_RDPS_WindDir_IsbL-0300_RLatLon0.09_PT077H.grib2 2026-04-14 21:02 448K
20260414T18Z_MSC_RDPS_WindDir_IsbL-0350_RLatLon0.09_PT077H.grib2 2026-04-14 21:02 471K
20260414T18Z_MSC_RDPS_WindDir_IsbL-0400_RLatLon0.09_PT077H.grib2 2026-04-14 21:02 492K
20260414T18Z_MSC_RDPS_WindDir_IsbL-0450_RLatLon0.09_PT077H.grib2 2026-04-14 21:02 508K
20260414T18Z_MSC_RDPS_WindDir_IsbL-0500_RLatLon0.09_PT077H.grib2 2026-04-14 21:02 532K
20260414T18Z_MSC_RDPS_WindDir_IsbL-0550_RLatLon0.09_PT077H.grib2 2026-04-14 21:02 553K
20260414T18Z_MSC_RDPS_WindDir_IsbL-0600_RLatLon0.09_PT077H.grib2 2026-04-14 21:02 584K
20260414T18Z_MSC_RDPS_WindDir_IsbL-0650_RLatLon0.09_PT077H.grib2 2026-04-14 21:02 628K
20260414T18Z_MSC_RDPS_WindDir_IsbL-0700_RLatLon0.09_PT077H.grib2 2026-04-14 21:02 674K
20260414T18Z_MSC_RDPS_WindDir_IsbL-0750_RLatLon0.09_PT077H.grib2 2026-04-14 21:02 727K
20260414T18Z_MSC_RDPS_WindDir_IsbL-0800_RLatLon0.09_PT077H.grib2 2026-04-14 21:02 785K
20260414T18Z_MSC_RDPS_WindDir_IsbL-0850_RLatLon0.09_PT077H.grib2 2026-04-14 21:02 847K
20260414T18Z_MSC_RDPS_WindDir_IsbL-0875_RLatLon0.09_PT077H.grib2 2026-04-14 21:02 872K
20260414T18Z_MSC_RDPS_WindDir_IsbL-0900_RLatLon0.09_PT077H.grib2 2026-04-14 21:02 893K
20260414T18Z_MSC_RDPS_WindDir_IsbL-0925_RLatLon0.09_PT077H.grib2 2026-04-14 21:02 904K
20260414T18Z_MSC_RDPS_WindDir_IsbL-0950_RLatLon0.09_PT077H.grib2 2026-04-14 21:02 901K
20260414T18Z_MSC_RDPS_WindDir_IsbL-0970_RLatLon0.09_PT077H.grib2 2026-04-14 21:02 904K
20260414T18Z_MSC_RDPS_WindDir_IsbL-0985_RLatLon0.09_PT077H.grib2 2026-04-14 21:01 914K
20260414T18Z_MSC_RDPS_WindDir_IsbL-1000_RLatLon0.09_PT077H.grib2 2026-04-14 21:02 927K
20260414T18Z_MSC_RDPS_WindDir_IsbL-1015_RLatLon0.09_PT077H.grib2 2026-04-14 21:02 944K
20260414T18Z_MSC_RDPS_WindGust-Max_AGL-10m_RLatLon0.09_PT077H.grib2 2026-04-14 21:02 1.0M
20260414T18Z_MSC_RDPS_WindGust-Min_AGL-10m_RLatLon0.09_PT077H.grib2 2026-04-14 21:02 1.0M
20260414T18Z_MSC_RDPS_WindGust_AGL-10m_RLatLon0.09_PT077H.grib2 2026-04-14 21:02 1.0M
20260414T18Z_MSC_RDPS_WindSpeed_AGL-10m_RLatLon0.09_PT077H.grib2 2026-04-14 21:02 843K
20260414T18Z_MSC_RDPS_WindSpeed_AGL-120m_RLatLon0.09_PT077H.grib2 2026-04-14 21:02 534K
20260414T18Z_MSC_RDPS_WindSpeed_AGL-40m_RLatLon0.09_PT077H.grib2 2026-04-14 21:01 671K
20260414T18Z_MSC_RDPS_WindSpeed_AGL-80m_RLatLon0.09_PT077H.grib2 2026-04-14 21:01 536K
20260414T18Z_MSC_RDPS_WindSpeed_IsbL-0001_RLatLon0.09_PT077H.grib2 2026-04-14 21:02 249K
20260414T18Z_MSC_RDPS_WindSpeed_IsbL-0005_RLatLon0.09_PT077H.grib2 2026-04-14 21:01 338K
20260414T18Z_MSC_RDPS_WindSpeed_IsbL-0010_RLatLon0.09_PT077H.grib2 2026-04-14 21:01 321K
20260414T18Z_MSC_RDPS_WindSpeed_IsbL-0020_RLatLon0.09_PT077H.grib2 2026-04-14 21:02 371K
20260414T18Z_MSC_RDPS_WindSpeed_IsbL-0030_RLatLon0.09_PT077H.grib2 2026-04-14 21:02 332K
20260414T18Z_MSC_RDPS_WindSpeed_IsbL-0050_RLatLon0.09_PT077H.grib2 2026-04-14 21:02 366K
20260414T18Z_MSC_RDPS_WindSpeed_IsbL-0100_RLatLon0.09_PT077H.grib2 2026-04-14 21:02 482K
20260414T18Z_MSC_RDPS_WindSpeed_IsbL-0150_RLatLon0.09_PT077H.grib2 2026-04-14 21:02 368K
20260414T18Z_MSC_RDPS_WindSpeed_IsbL-0175_RLatLon0.09_PT077H.grib2 2026-04-14 21:02 393K
20260414T18Z_MSC_RDPS_WindSpeed_IsbL-0200_RLatLon0.09_PT077H.grib2 2026-04-14 21:02 435K
20260414T18Z_MSC_RDPS_WindSpeed_IsbL-0225_RLatLon0.09_PT077H.grib2 2026-04-14 21:02 446K
20260414T18Z_MSC_RDPS_WindSpeed_IsbL-0250_RLatLon0.09_PT077H.grib2 2026-04-14 21:02 453K
20260414T18Z_MSC_RDPS_WindSpeed_IsbL-0275_RLatLon0.09_PT077H.grib2 2026-04-14 21:02 469K
20260414T18Z_MSC_RDPS_WindSpeed_IsbL-0300_RLatLon0.09_PT077H.grib2 2026-04-14 21:02 464K
20260414T18Z_MSC_RDPS_WindSpeed_IsbL-0350_RLatLon0.09_PT077H.grib2 2026-04-14 21:02 471K
20260414T18Z_MSC_RDPS_WindSpeed_IsbL-0400_RLatLon0.09_PT077H.grib2 2026-04-14 21:02 453K
20260414T18Z_MSC_RDPS_WindSpeed_IsbL-0450_RLatLon0.09_PT077H.grib2 2026-04-14 21:01 451K
20260414T18Z_MSC_RDPS_WindSpeed_IsbL-0500_RLatLon0.09_PT077H.grib2 2026-04-14 21:02 452K
20260414T18Z_MSC_RDPS_WindSpeed_IsbL-0550_RLatLon0.09_PT077H.grib2 2026-04-14 21:02 569K
20260414T18Z_MSC_RDPS_WindSpeed_IsbL-0600_RLatLon0.09_PT077H.grib2 2026-04-14 21:01 581K
20260414T18Z_MSC_RDPS_WindSpeed_IsbL-0650_RLatLon0.09_PT077H.grib2 2026-04-14 21:02 601K
20260414T18Z_MSC_RDPS_WindSpeed_IsbL-0700_RLatLon0.09_PT077H.grib2 2026-04-14 21:02 623K
20260414T18Z_MSC_RDPS_WindSpeed_IsbL-0750_RLatLon0.09_PT077H.grib2 2026-04-14 21:02 655K
20260414T18Z_MSC_RDPS_WindSpeed_IsbL-0800_RLatLon0.09_PT077H.grib2 2026-04-14 21:02 703K
20260414T18Z_MSC_RDPS_WindSpeed_IsbL-0850_RLatLon0.09_PT077H.grib2 2026-04-14 21:02 807K
20260414T18Z_MSC_RDPS_WindSpeed_IsbL-0875_RLatLon0.09_PT077H.grib2 2026-04-14 21:02 828K
20260414T18Z_MSC_RDPS_WindSpeed_IsbL-0900_RLatLon0.09_PT077H.grib2 2026-04-14 21:01 850K
20260414T18Z_MSC_RDPS_WindSpeed_IsbL-0925_RLatLon0.09_PT077H.grib2 2026-04-14 21:02 865K
20260414T18Z_MSC_RDPS_WindSpeed_IsbL-0950_RLatLon0.09_PT077H.grib2 2026-04-14 21:02 865K
20260414T18Z_MSC_RDPS_WindSpeed_IsbL-0970_RLatLon0.09_PT077H.grib2 2026-04-14 21:01 859K
20260414T18Z_MSC_RDPS_WindSpeed_IsbL-0985_RLatLon0.09_PT077H.grib2 2026-04-14 21:02 857K
20260414T18Z_MSC_RDPS_WindSpeed_IsbL-1000_RLatLon0.09_PT077H.grib2 2026-04-14 21:02 854K
20260414T18Z_MSC_RDPS_WindSpeed_IsbL-1015_RLatLon0.09_PT077H.grib2 2026-04-14 21:02 845K
20260414T18Z_MSC_RDPS_WindU_AGL-10m_RLatLon0.09_PT077H.grib2 2026-04-14 21:02 434K
20260414T18Z_MSC_RDPS_WindU_AGL-120m_RLatLon0.09_PT077H.grib2 2026-04-14 21:02 416K
20260414T18Z_MSC_RDPS_WindU_AGL-40m_RLatLon0.09_PT077H.grib2 2026-04-14 21:02 537K
20260414T18Z_MSC_RDPS_WindU_AGL-80m_RLatLon0.09_PT077H.grib2 2026-04-14 21:02 534K
20260414T18Z_MSC_RDPS_WindU_IsbL-0001_RLatLon0.09_PT077H.grib2 2026-04-14 21:02 291K
20260414T18Z_MSC_RDPS_WindU_IsbL-0005_RLatLon0.09_PT077H.grib2 2026-04-14 21:02 303K
20260414T18Z_MSC_RDPS_WindU_IsbL-0010_RLatLon0.09_PT077H.grib2 2026-04-14 21:01 245K
20260414T18Z_MSC_RDPS_WindU_IsbL-0020_RLatLon0.09_PT077H.grib2 2026-04-14 21:02 258K
20260414T18Z_MSC_RDPS_WindU_IsbL-0030_RLatLon0.09_PT077H.grib2 2026-04-14 21:02 257K
20260414T18Z_MSC_RDPS_WindU_IsbL-0050_RLatLon0.09_PT077H.grib2 2026-04-14 21:02 359K
20260414T18Z_MSC_RDPS_WindU_IsbL-0100_RLatLon0.09_PT077H.grib2 2026-04-14 21:02 341K
20260414T18Z_MSC_RDPS_WindU_IsbL-0150_RLatLon0.09_PT077H.grib2 2026-04-14 21:02 387K
20260414T18Z_MSC_RDPS_WindU_IsbL-0175_RLatLon0.09_PT077H.grib2 2026-04-14 21:02 411K
20260414T18Z_MSC_RDPS_WindU_IsbL-0200_RLatLon0.09_PT077H.grib2 2026-04-14 21:02 430K
20260414T18Z_MSC_RDPS_WindU_IsbL-0225_RLatLon0.09_PT077H.grib2 2026-04-14 21:02 439K
20260414T18Z_MSC_RDPS_WindU_IsbL-0250_RLatLon0.09_PT077H.grib2 2026-04-14 21:02 344K
20260414T18Z_MSC_RDPS_WindU_IsbL-0275_RLatLon0.09_PT077H.grib2 2026-04-14 21:01 357K
20260414T18Z_MSC_RDPS_WindU_IsbL-0300_RLatLon0.09_PT077H.grib2 2026-04-14 21:02 351K
20260414T18Z_MSC_RDPS_WindU_IsbL-0350_RLatLon0.09_PT077H.grib2 2026-04-14 21:02 357K
20260414T18Z_MSC_RDPS_WindU_IsbL-0400_RLatLon0.09_PT077H.grib2 2026-04-14 21:02 458K
20260414T18Z_MSC_RDPS_WindU_IsbL-0450_RLatLon0.09_PT077H.grib2 2026-04-14 21:02 457K
20260414T18Z_MSC_RDPS_WindU_IsbL-0500_RLatLon0.09_PT077H.grib2 2026-04-14 21:02 458K
20260414T18Z_MSC_RDPS_WindU_IsbL-0550_RLatLon0.09_PT077H.grib2 2026-04-14 21:01 461K
20260414T18Z_MSC_RDPS_WindU_IsbL-0600_RLatLon0.09_PT077H.grib2 2026-04-14 21:02 470K
20260414T18Z_MSC_RDPS_WindU_IsbL-0650_RLatLon0.09_PT077H.grib2 2026-04-14 21:01 488K
20260414T18Z_MSC_RDPS_WindU_IsbL-0700_RLatLon0.09_PT077H.grib2 2026-04-14 21:02 508K
20260414T18Z_MSC_RDPS_WindU_IsbL-0750_RLatLon0.09_PT077H.grib2 2026-04-14 21:02 522K
20260414T18Z_MSC_RDPS_WindU_IsbL-0800_RLatLon0.09_PT077H.grib2 2026-04-14 21:02 565K
20260414T18Z_MSC_RDPS_WindU_IsbL-0850_RLatLon0.09_PT077H.grib2 2026-04-14 21:02 615K
20260414T18Z_MSC_RDPS_WindU_IsbL-0875_RLatLon0.09_PT077H.grib2 2026-04-14 21:02 634K
20260414T18Z_MSC_RDPS_WindU_IsbL-0900_RLatLon0.09_PT077H.grib2 2026-04-14 21:02 658K
20260414T18Z_MSC_RDPS_WindU_IsbL-0925_RLatLon0.09_PT077H.grib2 2026-04-14 21:02 662K
20260414T18Z_MSC_RDPS_WindU_IsbL-0950_RLatLon0.09_PT077H.grib2 2026-04-14 21:02 657K
20260414T18Z_MSC_RDPS_WindU_IsbL-0970_RLatLon0.09_PT077H.grib2 2026-04-14 21:02 654K
20260414T18Z_MSC_RDPS_WindU_IsbL-0985_RLatLon0.09_PT077H.grib2 2026-04-14 21:02 794K
20260414T18Z_MSC_RDPS_WindU_IsbL-1000_RLatLon0.09_PT077H.grib2 2026-04-14 21:02 791K
20260414T18Z_MSC_RDPS_WindU_IsbL-1015_RLatLon0.09_PT077H.grib2 2026-04-14 21:02 784K
20260414T18Z_MSC_RDPS_WindV_AGL-10m_RLatLon0.09_PT077H.grib2 2026-04-14 21:02 431K
20260414T18Z_MSC_RDPS_WindV_AGL-120m_RLatLon0.09_PT077H.grib2 2026-04-14 21:02 529K
20260414T18Z_MSC_RDPS_WindV_AGL-40m_RLatLon0.09_PT077H.grib2 2026-04-14 21:01 534K
20260414T18Z_MSC_RDPS_WindV_AGL-80m_RLatLon0.09_PT077H.grib2 2026-04-14 21:02 531K
20260414T18Z_MSC_RDPS_WindV_IsbL-0001_RLatLon0.09_PT077H.grib2 2026-04-14 21:02 266K
20260414T18Z_MSC_RDPS_WindV_IsbL-0005_RLatLon0.09_PT077H.grib2 2026-04-14 21:02 302K
20260414T18Z_MSC_RDPS_WindV_IsbL-0010_RLatLon0.09_PT077H.grib2 2026-04-14 21:02 344K
20260414T18Z_MSC_RDPS_WindV_IsbL-0020_RLatLon0.09_PT077H.grib2 2026-04-14 21:02 326K
20260414T18Z_MSC_RDPS_WindV_IsbL-0030_RLatLon0.09_PT077H.grib2 2026-04-14 21:02 326K
20260414T18Z_MSC_RDPS_WindV_IsbL-0050_RLatLon0.09_PT077H.grib2 2026-04-14 21:02 359K
20260414T18Z_MSC_RDPS_WindV_IsbL-0100_RLatLon0.09_PT077H.grib2 2026-04-14 21:02 427K
20260414T18Z_MSC_RDPS_WindV_IsbL-0150_RLatLon0.09_PT077H.grib2 2026-04-14 21:02 382K
20260414T18Z_MSC_RDPS_WindV_IsbL-0175_RLatLon0.09_PT077H.grib2 2026-04-14 21:02 409K
20260414T18Z_MSC_RDPS_WindV_IsbL-0200_RLatLon0.09_PT077H.grib2 2026-04-14 21:02 333K
20260414T18Z_MSC_RDPS_WindV_IsbL-0225_RLatLon0.09_PT077H.grib2 2026-04-14 21:02 339K
20260414T18Z_MSC_RDPS_WindV_IsbL-0250_RLatLon0.09_PT077H.grib2 2026-04-14 21:02 343K
20260414T18Z_MSC_RDPS_WindV_IsbL-0275_RLatLon0.09_PT077H.grib2 2026-04-14 21:02 357K
20260414T18Z_MSC_RDPS_WindV_IsbL-0300_RLatLon0.09_PT077H.grib2 2026-04-14 21:02 352K
20260414T18Z_MSC_RDPS_WindV_IsbL-0350_RLatLon0.09_PT077H.grib2 2026-04-14 21:02 355K
20260414T18Z_MSC_RDPS_WindV_IsbL-0400_RLatLon0.09_PT077H.grib2 2026-04-14 21:01 456K
20260414T18Z_MSC_RDPS_WindV_IsbL-0450_RLatLon0.09_PT077H.grib2 2026-04-14 21:02 455K
20260414T18Z_MSC_RDPS_WindV_IsbL-0500_RLatLon0.09_PT077H.grib2 2026-04-14 21:02 456K
20260414T18Z_MSC_RDPS_WindV_IsbL-0550_RLatLon0.09_PT077H.grib2 2026-04-14 21:02 460K
20260414T18Z_MSC_RDPS_WindV_IsbL-0600_RLatLon0.09_PT077H.grib2 2026-04-14 21:01 451K
20260414T18Z_MSC_RDPS_WindV_IsbL-0650_RLatLon0.09_PT077H.grib2 2026-04-14 21:01 469K
20260414T18Z_MSC_RDPS_WindV_IsbL-0700_RLatLon0.09_PT077H.grib2 2026-04-14 21:01 490K
20260414T18Z_MSC_RDPS_WindV_IsbL-0750_RLatLon0.09_PT077H.grib2 2026-04-14 21:01 518K
20260414T18Z_MSC_RDPS_WindV_IsbL-0800_RLatLon0.09_PT077H.grib2 2026-04-14 21:02 559K
20260414T18Z_MSC_RDPS_WindV_IsbL-0850_RLatLon0.09_PT077H.grib2 2026-04-14 21:02 609K
20260414T18Z_MSC_RDPS_WindV_IsbL-0875_RLatLon0.09_PT077H.grib2 2026-04-14 21:02 629K
20260414T18Z_MSC_RDPS_WindV_IsbL-0900_RLatLon0.09_PT077H.grib2 2026-04-14 21:02 648K
20260414T18Z_MSC_RDPS_WindV_IsbL-0925_RLatLon0.09_PT077H.grib2 2026-04-14 21:02 658K
20260414T18Z_MSC_RDPS_WindV_IsbL-0950_RLatLon0.09_PT077H.grib2 2026-04-14 21:02 655K
20260414T18Z_MSC_RDPS_WindV_IsbL-0970_RLatLon0.09_PT077H.grib2 2026-04-14 21:02 792K
20260414T18Z_MSC_RDPS_WindV_IsbL-0985_RLatLon0.09_PT077H.grib2 2026-04-14 21:01 790K
20260414T18Z_MSC_RDPS_WindV_IsbL-1000_RLatLon0.09_PT077H.grib2 2026-04-14 21:02 786K
20260414T18Z_MSC_RDPS_WindV_IsbL-1015_RLatLon0.09_PT077H.grib2 2026-04-14 21:01 825K